Location: Whispering Pines Observatory
(39.4020°N, 104.7430°W)
Time: 01:30:36
(UTC-06:00)

MOS 1 Rocket - Visible Passes

Search period start: 01 September 2014 00:00
Search period end: 11 September 2014 00:00
Orbit: 617 x 834 km, 97.5° (Epoch: 31 August)

Date Brightness Start Highest point End Pass type
(mag) Time Alt. Az. Time Alt. Az. Time Alt. Az.
01 Sep 4.3 21:28:16 36° ENE 21:28:25 36° ENE 21:33:20 10° N visible
01 Sep 5.4 23:07:39 27° WNW 23:07:39 27° WNW 23:11:19 10° NW visible
02 Sep 5.4 20:39:32 13° ENE 20:40:41 14° ENE 20:43:22 10° NNE visible
02 Sep 3.9 22:18:55 67° NW 22:18:55 67° NW 22:23:40 10° NNW visible
03 Sep 4.3 21:30:10 38° ENE 21:30:10 38° ENE 21:35:04 10° N visible
03 Sep 5.5 23:09:33 25° WNW 23:09:33 25° WNW 23:12:57 10° NW visible
04 Sep 5.4 20:41:26 14° ENE 20:42:20 15° ENE 20:45:14 10° NNE visible
04 Sep 4.0 22:20:49 60° NW 22:20:49 60° NW 22:25:21 10° NNW visible
05 Sep 4.3 21:32:05 39° ENE 21:32:05 39° ENE 21:36:48 10° N visible
05 Sep 5.6 23:11:27 23° WNW 23:11:27 23° WNW 23:14:35 10° NW visible
06 Sep 5.3 20:43:21 15° ENE 20:43:58 16° ENE 20:47:05 10° NNE visible
06 Sep 4.2 22:22:44 54° NW 22:22:44 54° NW 22:27:03 10° NNW visible
07 Sep 4.3 21:34:00 41° NE 21:34:00 41° NE 21:38:32 10° N visible
07 Sep 5.7 23:13:23 22° WNW 23:13:23 22° WNW 23:16:12 10° NW visible
08 Sep 5.3 20:45:17 16° ENE 20:45:37 17° ENE 20:48:54 10° NNE visible
08 Sep 4.4 22:24:40 49° NW 22:24:40 49° NW 22:28:43 10° NNW visible
09 Sep 4.3 21:35:57 41° NE 21:35:57 41° NE 21:40:14 10° N visible
09 Sep 5.9 23:15:19 20° WNW 23:15:19 20° WNW 23:17:48 10° NW visible
10 Sep 5.2 20:47:14 17° ENE 20:47:16 17° ENE 20:50:42 10° NNE visible
10 Sep 4.7 22:26:36 44° NW 22:26:36 44° NW 22:30:23 10° NNW visible
